Location: Bodham
(52.9000°N, 1.1667°E)
Time: 14:42:47
(UTC+00:00)

Cosmos 2112 Rocket - Pass Details

Date: 21 October 2025
Orbit: 753 x 782 km, 74.0° (Epoch: 13 November)

Event Time Altitude Azimuth Distance (km) Brightness Sun altitude
Rises 17:33:10 0° 144° (SE) 3,255 7.0 -7.7°
Reaches altitude 10° 17:36:53 10° 118° (ESE) 2,329 6.0 -8.3°
Maximum altitude 17:39:12 13° 92° (E) 2,127 5.6 -8.6°
Drops below altitude 10° 17:41:30 10° 66° (ENE) 2,330 5.9 -9.0°
Enters shadow 17:41:46 - 63° (ENE) 2,375 6.0 -9.0°
